{"data":{"norad_id":56062,"epoch":"2026-09-20T03:49:08.266080Z","epoch_age_seconds":51415,"freshness":"FRESH","line1":"1 56062U 23043S   26263.15912345  .00000133  00000+0  31486-3 0  9991","line2":"2 56062  87.9159 209.9164 0001922  89.4722 270.6629 13.16595802171479","mean_motion":13.16595802,"eccentricity":0.0001922,"inclination_deg":87.9159,"raan_deg":209.9164,"arg_perigee_deg":89.4722,"mean_anomaly_deg":270.6629,"bstar":0.00031486,"rev_number":17147,"period_min":109.37297519957,"perigee_km":1196.2946546914,"apogee_km":1199.2068259388,"semimajor_km":7575.8877403151,"source":"CELESTRAK","updated_at":"2026-09-20T09:00:44.789724Z"}}